Wetterdaten: Mittwoch, 24.01.2018
Datum Zeit Temp. A. Aussen2m Boden Feuchte A. Feuchte 2 Luftdruck Regen Wind Richtung Richtung Sonnenschein
24.01.2018 00:00 10,7 C 10,6 C 7,3 C 89 % 88 % 1016,8 hPa 0,0 l/m 23,0 km/h (4 Bft) W-SW 250 0 min
24.01.2018 00:05 10,9 C 10,6 C 7,3 C 89 % 88 % 1016,8 hPa 0,0 l/m 23,0 km/h (4 Bft) SW 235 0 min
24.01.2018 00:10 11,0 C 10,7 C 7,3 C 89 % 87 % 1016,8 hPa 0,0 l/m 27,8 km/h (5 Bft) SW 225 0 min
24.01.2018 00:15 11,0 C 10,7 C 7,7 C 89 % 87 % 1016,8 hPa 0,0 l/m 27,4 km/h (5 Bft) SW 215 0 min
24.01.2018 00:20 10,9 C 10,8 C 7,7 C 89 % 88 % 1016,8 hPa 0,0 l/m 24,8 km/h (4 Bft) W 260 0 min
24.01.2018 00:25 11,0 C 10,8 C 7,7 C 89 % 88 % 1016,8 hPa 0,0 l/m 27,1 km/h (5 Bft) SW 230 0 min
24.01.2018 00:30 10,9 C 10,8 C 7,7 C 90 % 88 % 1016,8 hPa 0,0 l/m 24,2 km/h (4 Bft) W-SW 250 0 min
24.01.2018 00:35 10,9 C 10,8 C 7,7 C 90 % 88 % 1016,8 hPa 0,0 l/m 27,1 km/h (5 Bft) SW 220 0 min
24.01.2018 00:40 10,9 C 10,8 C 7,7 C 90 % 88 % 1016,8 hPa 0,0 l/m 24,2 km/h (4 Bft) S 190 0 min
24.01.2018 00:45 11,0 C 10,8 C 7,7 C 90 % 88 % 1016,8 hPa 0,0 l/m 25,4 km/h (4 Bft) W 260 0 min
24.01.2018 00:50 10,9 C 10,8 C 7,7 C 90 % 88 % 1016,8 hPa 0,0 l/m 25,4 km/h (4 Bft) SW 230 0 min
24.01.2018 00:55 11,0 C 10,9 C 7,7 C 90 % 88 % 1016,8 hPa 0,0 l/m 26,0 km/h (4 Bft) S 190 0 min
24.01.2018 01:00 11,0 C 10,9 C 7,9 C 91 % 88 % 1016,8 hPa 0,0 l/m 27,1 km/h (5 Bft) SW 220 0 min
24.01.2018 01:05 11,0 C 10,9 C 7,9 C 91 % 88 % 1016,8 hPa 0,0 l/m 20,0 km/h (4 Bft) SW 230 0 min
24.01.2018 01:10 11,0 C 10,8 C 7,9 C 91 % 88 % 1016,8 hPa 0,0 l/m 20,6 km/h (4 Bft) S-SW 200 0 min
24.01.2018 01:15 11,0 C 10,9 C 7,9 C 91 % 89 % 1016,8 hPa 0,0 l/m 20,0 km/h (4 Bft) S 190 0 min
24.01.2018 01:20 11,0 C 10,9 C 7,9 C 91 % 88 % 1016,8 hPa 0,0 l/m 23,6 km/h (4 Bft) S-SW 195 0 min
24.01.2018 01:25 11,1 C 10,9 C 7,9 C 91 % 89 % 1016,8 hPa 0,0 l/m 20,6 km/h (4 Bft) SW 235 0 min
24.01.2018 01:30 11,1 C 10,9 C 7,9 C 90 % 88 % 1015,8 hPa 0,0 l/m 21,8 km/h (4 Bft) S-SW 200 0 min
24.01.2018 01:35 11,1 C 11,0 C 7,9 C 90 % 88 % 1015,8 hPa 0,0 l/m 21,8 km/h (4 Bft) S-SW 210 0 min
24.01.2018 01:40 11,1 C 11,0 C 7,9 C 90 % 88 % 1015,8 hPa 0,0 l/m 23,0 km/h (4 Bft) SO 145 0 min
24.01.2018 01:45 11,2 C 11,0 C 7,9 C 90 % 88 % 1015,8 hPa 0,0 l/m 23,6 km/h (4 Bft) S-SW 195 0 min
24.01.2018 01:50 11,3 C 11,0 C 7,9 C 90 % 88 % 1015,8 hPa 0,0 l/m 26,7 km/h (4 Bft) SW 220 0 min
24.01.2018 01:55 11,2 C 11,0 C 7,9 C 90 % 88 % 1015,8 hPa 0,0 l/m 21,8 km/h (4 Bft) W-SW 245 0 min
24.01.2018 02:00 11,2 C 11,0 C 8,0 C 90 % 88 % 1016,8 hPa 0,0 l/m 17,6 km/h (3 Bft) W-SW 240 0 min
24.01.2018 02:05 11,2 C 11,0 C 8,0 C 90 % 88 % 1016,8 hPa 0,0 l/m 18,8 km/h (3 Bft) S 180 0 min
24.01.2018 02:10 11,3 C 11,1 C 8,0 C 90 % 88 % 1016,8 hPa 0,0 l/m 20,0 km/h (4 Bft) S 190 0 min
24.01.2018 02:15 11,3 C 11,1 C 8,0 C 90 % 88 % 1016,8 hPa 0,0 l/m 18,2 km/h (3 Bft) SW 225 0 min
24.01.2018 02:20 11,3 C 11,1 C 8,0 C 90 % 88 % 1016,8 hPa 0,0 l/m 16,9 km/h (3 Bft) SW 220 0 min
24.01.2018 02:25 11,3 C 11,1 C 8,0 C 91 % 89 % 1016,8 hPa 0,0 l/m 23,0 km/h (4 Bft) S-SW 200 0 min
24.01.2018 02:30 11,2 C 11,1 C 8,0 C 91 % 89 % 1015,8 hPa 0,0 l/m 17,6 km/h (3 Bft) SW 230 0 min
24.01.2018 02:35 11,3 C 11,1 C 8,0 C 91 % 89 % 1015,8 hPa 0,0 l/m 15,7 km/h (3 Bft) W-SW 255 0 min
24.01.2018 02:40 11,3 C 11,1 C 8,0 C 91 % 89 % 1015,8 hPa 0,0 l/m 23,0 km/h (4 Bft) S-SW 210 0 min
24.01.2018 02:45 11,3 C 11,1 C 8,0 C 91 % 89 % 1015,8 hPa 0,0 l/m 15,7 km/h (3 Bft) S 170 0 min
24.01.2018 02:50 11,3 C 11,2 C 8,0 C 91 % 89 % 1015,8 hPa 0,0 l/m 20,6 km/h (4 Bft) SW 235 0 min
24.01.2018 02:55 11,3 C 11,2 C 8,0 C 91 % 89 % 1015,8 hPa 0,0 l/m 19,4 km/h (3 Bft) W-SW 245 0 min
24.01.2018 03:00 11,4 C 11,2 C 8,0 C 90 % 88 % 1015,8 hPa 0,0 l/m 18,2 km/h (3 Bft) S-SW 205 0 min
24.01.2018 03:05 11,4 C 11,2 C 8,0 C 90 % 88 % 1015,8 hPa 0,0 l/m 18,2 km/h (3 Bft) S-SW 195 0 min
24.01.2018 03:10 11,3 C 11,2 C 8,2 C 90 % 88 % 1015,8 hPa 0,0 l/m 15,1 km/h (3 Bft) S-SW 200 0 min
24.01.2018 03:15 11,4 C 11,2 C 8,2 C 90 % 88 % 1015,8 hPa 0,0 l/m 14,5 km/h (3 Bft) W-SW 255 0 min
24.01.2018 03:20 11,4 C 11,3 C 8,2 C 90 % 88 % 1015,8 hPa 0,0 l/m 22,4 km/h (4 Bft) S 190 0 min
24.01.2018 03:25 11,3 C 11,2 C 8,2 C 90 % 88 % 1015,8 hPa 0,0 l/m 10,9 km/h (2 Bft) S-SW 205 0 min
24.01.2018 03:30 11,4 C 11,2 C 8,2 C 90 % 88 % 1015,8 hPa 0,0 l/m 16,3 km/h (3 Bft) SW 230 0 min
24.01.2018 03:35 11,3 C 11,2 C 8,2 C 90 % 88 % 1015,8 hPa 0,0 l/m 13,3 km/h (3 Bft) S-SW 200 0 min
24.01.2018 03:40 11,3 C 11,2 C 8,2 C 90 % 88 % 1015,8 hPa 0,0 l/m 16,3 km/h (3 Bft) S-SW 205 0 min
24.01.2018 03:45 11,4 C 11,2 C 8,2 C 91 % 88 % 1015,8 hPa 0,0 l/m 11,5 km/h (2 Bft) SW 230 0 min
24.01.2018 03:50 11,4 C 11,2 C 8,2 C 91 % 89 % 1015,8 hPa 0,0 l/m 17,6 km/h (3 Bft) SW 230 0 min
24.01.2018 03:55 11,5 C 11,3 C 8,2 C 90 % 89 % 1015,8 hPa 0,0 l/m 16,9 km/h (3 Bft) SW 225 0 min
24.01.2018 04:00 11,4 C 11,3 C 8,2 C 90 % 89 % 1015,8 hPa 0,0 l/m 14,5 km/h (3 Bft) S-SW 200 0 min
24.01.2018 04:05 11,5 C 11,4 C 8,2 C 90 % 89 % 1015,8 hPa 0,0 l/m 21,8 km/h (4 Bft) SW 220 0 min
24.01.2018 04:10 11,5 C 11,4 C 8,2 C 90 % 88 % 1015,8 hPa 0,0 l/m 11,5 km/h (2 Bft) SW 235 0 min
24.01.2018 04:15 11,7 C 11,4 C 8,2 C 90 % 88 % 1015,8 hPa 0,0 l/m 23,0 km/h (4 Bft) W-SW 240 0 min
24.01.2018 04:20 11,6 C 11,4 C 8,2 C 90 % 88 % 1015,8 hPa 0,0 l/m 13,9 km/h (3 Bft) S-SW 205 0 min
24.01.2018 04:25 11,7 C 11,4 C 8,2 C 90 % 88 % 1015,8 hPa 0,0 l/m 16,3 km/h (3 Bft) S 180 0 min
24.01.2018 04:30 11,8 C 11,5 C 8,2 C 90 % 88 % 1015,8 hPa 0,0 l/m 17,6 km/h (3 Bft) SW 235 0 min
24.01.2018 04:35 11,7 C 11,5 C 8,2 C 90 % 88 % 1015,8 hPa 0,0 l/m 18,8 km/h (3 Bft) S-SO 160 0 min
24.01.2018 04:40 11,8 C 11,5 C 8,2 C 89 % 88 % 1015,8 hPa 0,0 l/m 13,3 km/h (3 Bft) N-NW 340 0 min
24.01.2018 04:45 11,7 C 11,5 C 8,2 C 89 % 88 % 1015,8 hPa 0,0 l/m 18,2 km/h (3 Bft) W-SW 255 0 min
24.01.2018 04:50 11,7 C 11,5 C 8,4 C 89 % 88 % 1015,8 hPa 0,0 l/m 13,3 km/h (3 Bft) S-SW 205 0 min
24.01.2018 04:55 11,9 C 11,6 C 8,4 C 89 % 87 % 1015,8 hPa 0,0 l/m 16,9 km/h (3 Bft) S-SO 165 0 min
24.01.2018 05:00 11,8 C 11,6 C 8,4 C 89 % 87 % 1015,8 hPa 0,0 l/m 13,3 km/h (3 Bft) SW 215 0 min
24.01.2018 05:05 11,8 C 11,6 C 8,4 C 89 % 87 % 1015,8 hPa 0,0 l/m 15,1 km/h (3 Bft) S-SW 200 0 min
24.01.2018 05:10 11,8 C 11,6 C 8,4 C 89 % 87 % 1015,8 hPa 0,0 l/m 15,1 km/h (3 Bft) S-SW 200 0 min
24.01.2018 05:15 11,8 C 11,7 C 8,4 C 89 % 87 % 1015,8 hPa 0,0 l/m 18,2 km/h (3 Bft) SW 235 0 min
24.01.2018 05:20 11,8 C 11,6 C 8,4 C 89 % 87 % 1015,8 hPa 0,0 l/m 17,6 km/h (3 Bft) S-SW 210 0 min
24.01.2018 05:25 11,8 C 11,6 C 8,4 C 89 % 87 % 1015,8 hPa 0,0 l/m 16,9 km/h (3 Bft) S 185 0 min
24.01.2018 05:30 11,9 C 11,6 C 8,4 C 89 % 87 % 1015,8 hPa 0,0 l/m 18,8 km/h (3 Bft) S 190 0 min
24.01.2018 05:35 11,8 C 11,6 C 8,6 C 89 % 87 % 1015,8 hPa 0,0 l/m 14,5 km/h (3 Bft) SW 215 0 min
24.01.2018 05:40 11,9 C 11,7 C 8,6 C 88 % 87 % 1015,8 hPa 0,0 l/m 18,2 km/h (3 Bft) S-SW 195 0 min
24.01.2018 05:45 11,8 C 11,7 C 8,6 C 88 % 87 % 1015,8 hPa 0,0 l/m 23,0 km/h (4 Bft) S-SW 210 0 min
24.01.2018 05:50 11,9 C 11,7 C 8,6 C 88 % 87 % 1015,8 hPa 0,0 l/m 17,6 km/h (3 Bft) S-SW 195 0 min
24.01.2018 05:55 11,9 C 11,7 C 8,6 C 88 % 87 % 1015,8 hPa 0,0 l/m 15,7 km/h (3 Bft) S-SW 200 0 min
24.01.2018 06:00 11,9 C 11,8 C 8,6 C 88 % 87 % 1014,8 hPa 0,0 l/m 25,4 km/h (4 Bft) SW 235 0 min
24.01.2018 06:05 11,9 C 11,8 C 8,6 C 88 % 87 % 1014,8 hPa 0,0 l/m 22,4 km/h (4 Bft) S-SW 210 0 min
24.01.2018 06:10 11,9 C 11,8 C 8,6 C 88 % 87 % 1014,8 hPa 0,0 l/m 22,4 km/h (4 Bft) S-SO 150 0 min
24.01.2018 06:15 11,9 C 11,8 C 8,6 C 88 % 87 % 1014,8 hPa 0,0 l/m 18,8 km/h (3 Bft) S-SW 210 0 min
24.01.2018 06:20 11,8 C 11,7 C 8,6 C 88 % 87 % 1014,8 hPa 0,0 l/m 14,5 km/h (3 Bft) S 190 0 min
24.01.2018 06:25 11,8 C 11,7 C 8,6 C 88 % 87 % 1014,8 hPa 0,0 l/m 19,4 km/h (3 Bft) S 190 0 min
24.01.2018 06:30 11,9 C 11,8 C 8,6 C 88 % 87 % 1015,8 hPa 0,0 l/m 14,5 km/h (3 Bft) SW 230 0 min
24.01.2018 06:35 11,9 C 11,7 C 8,6 C 88 % 86 % 1015,8 hPa 0,0 l/m 14,5 km/h (3 Bft) SW 230 0 min
24.01.2018 06:40 11,8 C 11,7 C 8,6 C 88 % 87 % 1015,8 hPa 0,0 l/m 15,7 km/h (3 Bft) S 170 0 min
24.01.2018 06:45 11,8 C 11,8 C 8,6 C 88 % 86 % 1014,8 hPa 0,0 l/m 15,7 km/h (3 Bft) S 170 0 min
24.01.2018 06:50 11,9 C 11,7 C 8,6 C 88 % 86 % 1014,8 hPa 0,0 l/m 18,2 km/h (3 Bft) S-SW 205 0 min
24.01.2018 06:55 11,9 C 11,8 C 8,6 C 88 % 87 % 1014,8 hPa 0,0 l/m 16,3 km/h (3 Bft) SW 235 0 min
24.01.2018 07:00 11,9 C 11,8 C 8,6 C 88 % 86 % 1014,8 hPa 0,0 l/m 17,6 km/h (3 Bft) S-SW 200 0 min
24.01.2018 07:05 11,9 C 11,8 C 8,6 C 88 % 86 % 1014,8 hPa 0,0 l/m 20,6 km/h (4 Bft) S 185 0 min
24.01.2018 07:10 11,9 C 11,8 C 8,6 C 88 % 86 % 1014,8 hPa 0,0 l/m 25,4 km/h (4 Bft) S-SW 195 0 min
24.01.2018 07:15 11,9 C 11,8 C 8,6 C 88 % 86 % 1014,8 hPa 0,0 l/m 18,2 km/h (3 Bft) S 185 0 min
24.01.2018 07:20 11,9 C 11,8 C 8,6 C 88 % 86 % 1014,8 hPa 0,0 l/m 18,2 km/h (3 Bft) S 185 0 min
24.01.2018 07:25 11,9 C 11,8 C 8,6 C 88 % 86 % 1014,8 hPa 0,0 l/m 23,0 km/h (4 Bft) S 170 0 min
24.01.2018 07:30 11,9 C 11,8 C 8,6 C 88 % 86 % 1014,8 hPa 0,0 l/m 21,8 km/h (4 Bft) S-SW 205 0 min
24.01.2018 07:35 11,9 C 11,8 C 8,6 C 88 % 86 % 1014,8 hPa 0,0 l/m 21,8 km/h (4 Bft) S-SW 205 0 min
24.01.2018 07:40 11,9 C 11,8 C 8,7 C 88 % 86 % 1014,8 hPa 0,0 l/m 21,2 km/h (4 Bft) SW 220 0 min
24.01.2018 07:45 11,9 C 11,8 C 8,7 C 88 % 86 % 1015,8 hPa 0,0 l/m 21,8 km/h (4 Bft) S 180 0 min
24.01.2018 07:50 11,9 C 11,8 C 8,7 C 88 % 86 % 1015,8 hPa 0,0 l/m 21,8 km/h (4 Bft) S 180 0 min
24.01.2018 07:55 11,9 C 11,8 C 8,7 C 88 % 86 % 1015,8 hPa 0,0 l/m 21,8 km/h (4 Bft) S 180 0 min
24.01.2018 08:00 11,9 C 11,8 C 8,7 C 88 % 86 % 1015,8 hPa 0,0 l/m 21,8 km/h (4 Bft) S 180 0 min
24.01.2018 08:05 11,9 C 11,7 C 8,7 C 88 % 86 % 1015,8 hPa 0,0 l/m 21,8 km/h (4 Bft) S 180 0 min
24.01.2018 08:10 11,9 C 11,8 C 8,7 C 88 % 86 % 1015,8 hPa 0,0 l/m 21,8 km/h (4 Bft) SW 225 0 min
24.01.2018 08:15 11,9 C 11,8 C 8,7 C 88 % 86 % 1014,8 hPa 0,0 l/m 25,4 km/h (4 Bft) S-SW 200 0 min
24.01.2018 08:20 11,9 C 11,8 C 8,7 C 88 % 86 % 1014,8 hPa 0,0 l/m 25,4 km/h (4 Bft) S-SW 200 0 min
24.01.2018 08:25 12,1 C 11,8 C 8,7 C 87 % 86 % 1014,8 hPa 0,0 l/m 22,4 km/h (4 Bft) S 185 0 min
24.01.2018 08:30 12,1 C 11,9 C 8,7 C 87 % 86 % 1014,8 hPa 0,0 l/m 28,2 km/h (5 Bft) S 185 0 min
24.01.2018 08:35 12,2 C 11,9 C 8,7 C 87 % 85 % 1014,8 hPa 0,0 l/m 25,4 km/h (4 Bft) S-SW 200 0 min
24.01.2018 08:40 12,2 C 12,0 C 8,7 C 87 % 85 % 1014,8 hPa 0,0 l/m 25,4 km/h (4 Bft) S-SW 200 0 min
24.01.2018 08:45 12,2 C 12,0 C 8,7 C 87 % 85 % 1014,8 hPa 0,0 l/m 25,4 km/h (4 Bft) S-SW 200 0 min
24.01.2018 08:50 12,2 C 12,1 C 8,7 C 86 % 85 % 1014,8 hPa 0,0 l/m 23,0 km/h (4 Bft) S 185 0 min
24.01.2018 08:55 12,3 C 12,1 C 8,9 C 86 % 85 % 1014,8 hPa 0,0 l/m 26,7 km/h (4 Bft) S 180 0 min
24.01.2018 09:00 12,3 C 12,2 C 8,9 C 86 % 85 % 1014,8 hPa 0,0 l/m 26,7 km/h (4 Bft) S 180 0 min
24.01.2018 09:05 12,4 C 12,2 C 8,9 C 85 % 85 % 1014,8 hPa 0,0 l/m 26,3 km/h (4 Bft) S 185 0 min
24.01.2018 09:10 12,4 C 12,2 C 8,9 C 85 % 84 % 1014,8 hPa 0,0 l/m 30,5 km/h (5 Bft) SW 235 0 min
24.01.2018 09:15 12,4 C 12,2 C 8,9 C 85 % 84 % 1014,8 hPa 0,0 l/m 27,1 km/h (5 Bft) S 175 0 min
24.01.2018 09:20 12,4 C 12,3 C 8,9 C 85 % 84 % 1014,8 hPa 0,0 l/m 27,1 km/h (5 Bft) S 175 0 min
24.01.2018 09:25 12,4 C 12,2 C 8,9 C 85 % 84 % 1014,8 hPa 0,0 l/m 27,1 km/h (5 Bft) S 175 0 min
24.01.2018 09:30 12,4 C 12,3 C 8,9 C 86 % 84 % 1014,8 hPa 0,0 l/m 20,6 km/h (4 Bft) S-SO 160 0 min
24.01.2018 09:35 12,4 C 12,3 C 8,9 C 86 % 84 % 1014,8 hPa 0,0 l/m 20,6 km/h (4 Bft) S-SO 160 0 min
24.01.2018 09:40 12,4 C 12,3 C 9,1 C 86 % 84 % 1014,8 hPa 0,0 l/m 21,8 km/h (4 Bft) SW 215 0 min
24.01.2018 09:45 12,4 C 12,4 C 9,1 C 86 % 84 % 1013,8 hPa 0,0 l/m 22,4 km/h (4 Bft) S-SW 210 0 min
24.01.2018 09:50 12,3 C 12,4 C 9,1 C 86 % 85 % 1013,8 hPa 0,0 l/m 27,1 km/h (5 Bft) S 175 0 min
24.01.2018 09:55 12,4 C 12,4 C 9,1 C 86 % 84 % 1013,8 hPa 0,0 l/m 23,6 km/h (4 Bft) SW 220 0 min
24.01.2018 10:00 12,4 C 12,4 C 9,1 C 86 % 84 % 1013,8 hPa 0,0 l/m 23,6 km/h (4 Bft) SW 225 0 min
24.01.2018 10:05 12,4 C 12,4 C 9,1 C 86 % 84 % 1013,8 hPa 0,0 l/m 16,3 km/h (3 Bft) SW 220 0 min
24.01.2018 10:10 12,4 C 12,4 C 9,1 C 86 % 84 % 1013,8 hPa 0,0 l/m 28,6 km/h (5 Bft) S-SO 155 0 min
24.01.2018 10:15 12,5 C 12,5 C 9,1 C 86 % 84 % 1014,8 hPa 0,0 l/m 21,2 km/h (4 Bft) S 170 0 min
24.01.2018 10:20 12,6 C 12,6 C 9,2 C 86 % 84 % 1014,8 hPa 0,0 l/m 24,2 km/h (4 Bft) S-SW 205 0 min
24.01.2018 10:25 12,7 C 12,6 C 9,2 C 85 % 84 % 1014,8 hPa 0,0 l/m 23,0 km/h (4 Bft) SW 230 0 min
24.01.2018 10:30 12,7 C 12,7 C 9,2 C 85 % 84 % 1014,8 hPa 0,0 l/m 23,6 km/h (4 Bft) SO 130 0 min
24.01.2018 10:35 12,8 C 12,7 C 9,2 C 85 % 84 % 1014,8 hPa 0,0 l/m 20,0 km/h (4 Bft) S 175 0 min
24.01.2018 10:40 12,9 C 12,8 C 9,4 C 85 % 83 % 1014,8 hPa 0,0 l/m 23,0 km/h (4 Bft) S-SO 150 0 min
24.01.2018 10:45 13,0 C 12,8 C 9,4 C 84 % 83 % 1013,7 hPa 0,0 l/m 20,6 km/h (4 Bft) SO 135 0 min
24.01.2018 10:50 13,0 C 12,9 C 9,4 C 84 % 84 % 1013,7 hPa 0,0 l/m 24,2 km/h (4 Bft) SW 220 0 min
24.01.2018 10:55 13,1 C 13,0 C 9,4 C 84 % 83 % 1013,7 hPa 0,0 l/m 26,3 km/h (4 Bft) SW 225 1 min
24.01.2018 11:00 13,1 C 13,0 C 9,4 C 84 % 83 % 1013,7 hPa 0,0 l/m 23,0 km/h (4 Bft) SW 220 0 min
24.01.2018 11:05 13,1 C 13,1 C 9,4 C 84 % 83 % 1013,7 hPa 0,0 l/m 23,0 km/h (4 Bft) SW 220 0 min
24.01.2018 11:10 13,2 C 13,2 C 9,4 C 84 % 82 % 1013,7 hPa 0,0 l/m 26,3 km/h (4 Bft) SW 220 0 min
24.01.2018 11:15 13,3 C 13,2 C 9,6 C 83 % 82 % 1013,7 hPa 0,0 l/m 27,8 km/h (5 Bft) S-SW 210 0 min
24.01.2018 11:20 13,3 C 13,2 C 9,6 C 83 % 82 % 1013,7 hPa 0,0 l/m 27,8 km/h (5 Bft) S-SW 210 0 min
24.01.2018 11:25 13,4 C 13,3 C 9,6 C 83 % 82 % 1013,7 hPa 0,0 l/m 21,8 km/h (4 Bft) S 190 0 min
24.01.2018 11:30 13,6 C 13,3 C 9,6 C 82 % 82 % 1013,7 hPa 0,0 l/m 30,2 km/h (5 Bft) S-SW 200 0 min
24.01.2018 11:35 13,6 C 13,4 C 9,6 C 82 % 82 % 1013,7 hPa 0,0 l/m 30,2 km/h (5 Bft) S-SW 200 0 min
24.01.2018 11:40 13,8 C 13,5 C 9,6 C 82 % 82 % 1013,7 hPa 0,0 l/m 24,2 km/h (4 Bft) S 180 0 min
24.01.2018 11:45 13,7 C 13,6 C 9,7 C 82 % 82 % 1012,7 hPa 0,0 l/m 18,2 km/h (3 Bft) S 175 2 min
24.01.2018 11:50 13,9 C 13,8 C 9,7 C 82 % 82 % 1012,7 hPa 0,0 l/m 24,2 km/h (4 Bft) S-SW 195 5 min
24.01.2018 11:55 13,9 C 13,8 C 9,9 C 82 % 81 % 1012,7 hPa 0,0 l/m 24,2 km/h (4 Bft) S-SW 195 0 min
24.01.2018 12:00 14,1 C 14,0 C 9,9 C 81 % 81 % 1012,7 hPa 0,0 l/m 29,8 km/h (5 Bft) S-SW 200 10 min
24.01.2018 12:05 14,2 C 13,9 C 9,9 C 81 % 80 % 1012,7 hPa 0,0 l/m 27,1 km/h (5 Bft) S 190 4 min
24.01.2018 12:10 14,2 C 14,0 C 10,1 C 81 % 80 % 1012,7 hPa 0,0 l/m 27,1 km/h (5 Bft) S 190 0 min
24.01.2018 12:15 14,2 C 14,1 C 10,1 C 80 % 80 % 1012,7 hPa 0,0 l/m 32,5 km/h (5 Bft) S-SW 200 8 min
24.01.2018 12:20 14,3 C 14,2 C 10,1 C 80 % 80 % 1012,7 hPa 0,0 l/m 30,2 km/h (5 Bft) S-SW 210 4 min
24.01.2018 12:25 14,2 C 14,2 C 10,1 C 80 % 80 % 1012,7 hPa 0,0 l/m 25,4 km/h (4 Bft) S 170 3 min
24.01.2018 12:30 14,2 C 14,1 C 10,1 C 80 % 80 % 1012,7 hPa 0,0 l/m 30,9 km/h (5 Bft) S-SW 210 7 min
24.01.2018 12:35 14,2 C 14,2 C 10,1 C 80 % 80 % 1012,7 hPa 0,0 l/m 30,9 km/h (5 Bft) S-SW 210 0 min
24.01.2018 12:40 14,2 C 14,2 C 10,1 C 80 % 80 % 1012,7 hPa 0,0 l/m 29,0 km/h (5 Bft) S-SW 210 7 min
24.01.2018 12:45 14,2 C 14,2 C 10,1 C 80 % 80 % 1011,7 hPa 0,0 l/m 30,2 km/h (5 Bft) S-SW 200 8 min
24.01.2018 12:50 14,2 C 14,2 C 10,1 C 80 % 79 % 1011,7 hPa 0,0 l/m 34,4 km/h (5 Bft) S 185 4 min
24.01.2018 12:55 14,3 C 14,3 C 10,1 C 79 % 79 % 1011,7 hPa 0,0 l/m 32,1 km/h (5 Bft) SW 225 6 min
24.01.2018 13:00 14,3 C 14,3 C 10,1 C 80 % 79 % 1011,7 hPa 0,0 l/m 29,0 km/h (5 Bft) SW 225 1 min
24.01.2018 13:05 14,4 C 14,4 C 10,1 C 79 % 79 % 1011,7 hPa 0,0 l/m 30,5 km/h (5 Bft) S-SW 200 5 min
24.01.2018 13:10 14,4 C 14,4 C 10,1 C 79 % 79 % 1011,7 hPa 0,0 l/m 34,8 km/h (5 Bft) S 175 7 min
24.01.2018 13:15 14,4 C 14,4 C 10,1 C 79 % 78 % 1011,7 hPa 0,0 l/m 30,2 km/h (5 Bft) S-SW 210 3 min
24.01.2018 13:20 14,4 C 14,4 C 10,2 C 79 % 78 % 1011,7 hPa 0,0 l/m 30,5 km/h (5 Bft) S 190 1 min
24.01.2018 13:25 14,4 C 14,4 C 10,2 C 79 % 78 % 1011,7 hPa 0,0 l/m 28,2 km/h (5 Bft) SW 215 4 min
24.01.2018 13:30 14,4 C 14,4 C 10,2 C 79 % 78 % 1011,7 hPa 0,0 l/m 28,6 km/h (5 Bft) S-SW 210 6 min
24.01.2018 13:35 14,4 C 14,4 C 10,2 C 79 % 78 % 1011,7 hPa 0,0 l/m 30,9 km/h (5 Bft) S 175 3 min
24.01.2018 13:40 14,4 C 14,4 C 10,2 C 79 % 78 % 1011,7 hPa 0,0 l/m 30,9 km/h (5 Bft) S 175 0 min
24.01.2018 13:45 14,3 C 14,4 C 10,2 C 79 % 78 % 1010,7 hPa 0,0 l/m 27,8 km/h (5 Bft) S-SW 200 0 min
24.01.2018 13:50 14,3 C 14,4 C 10,2 C 79 % 78 % 1010,7 hPa 0,0 l/m 29,4 km/h (5 Bft) S-SW 200 0 min
24.01.2018 13:55 14,2 C 14,3 C 10,2 C 79 % 78 % 1010,7 hPa 0,0 l/m 31,3 km/h (5 Bft) SO 135 0 min
24.01.2018 14:00 14,2 C 14,3 C 10,2 C 79 % 78 % 1010,7 hPa 0,0 l/m 34,0 km/h (5 Bft) S 185 0 min
24.01.2018 14:05 14,2 C 14,2 C 10,2 C 79 % 79 % 1010,7 hPa 0,0 l/m 27,4 km/h (5 Bft) S-SO 165 0 min
24.01.2018 14:10 14,2 C 14,2 C 10,2 C 79 % 78 % 1010,7 hPa 0,0 l/m 31,7 km/h (5 Bft) S 185 0 min
24.01.2018 14:15 14,2 C 14,2 C 10,2 C 79 % 78 % 1010,7 hPa 0,0 l/m 30,2 km/h (5 Bft) S-SW 195 2 min
24.01.2018 14:20 14,2 C 14,2 C 10,2 C 79 % 78 % 1010,7 hPa 0,0 l/m 31,3 km/h (5 Bft) S-SW 200 1 min
24.01.2018 14:25 14,1 C 14,2 C 10,2 C 79 % 78 % 1010,7 hPa 0,0 l/m 21,2 km/h (4 Bft) S 175 0 min
24.01.2018 14:30 14,1 C 14,2 C 10,2 C 79 % 78 % 1010,7 hPa 0,0 l/m 23,6 km/h (4 Bft) S-SW 200 0 min
24.01.2018 14:35 14,1 C 14,2 C 10,2 C 79 % 78 % 1010,7 hPa 0,0 l/m 30,5 km/h (5 Bft) SW 235 0 min
24.01.2018 14:40 14,1 C 14,1 C 10,2 C 79 % 79 % 1010,7 hPa 0,0 l/m 27,1 km/h (5 Bft) SW 235 0 min
24.01.2018 14:45 14,1 C 14,1 C 10,2 C 79 % 78 % 1010,7 hPa 0,0 l/m 30,9 km/h (5 Bft) SW 220 0 min
24.01.2018 14:50 14,0 C 14,1 C 10,2 C 79 % 78 % 1010,7 hPa 0,0 l/m 33,3 km/h (5 Bft) SO 145 0 min
24.01.2018 14:55 14,0 C 14,1 C 10,2 C 79 % 78 % 1010,7 hPa 0,0 l/m 23,0 km/h (4 Bft) SW 220 0 min
24.01.2018 15:00 14,0 C 14,1 C 10,2 C 78 % 77 % 1009,7 hPa 0,0 l/m 32,1 km/h (5 Bft) S-SW 210 0 min
24.01.2018 15:05 14,1 C 14,1 C 10,2 C 78 % 77 % 1009,7 hPa 0,0 l/m 31,7 km/h (5 Bft) S-SW 205 0 min
24.01.2018 15:10 14,0 C 14,1 C 10,2 C 78 % 77 % 1009,7 hPa 0,0 l/m 32,1 km/h (5 Bft) S 185 0 min
24.01.2018 15:15 14,0 C 14,0 C 10,2 C 78 % 78 % 1009,7 hPa 0,0 l/m 31,7 km/h (5 Bft) NW 310 0 min
24.01.2018 15:20 13,9 C 14,0 C 10,2 C 78 % 78 % 1009,7 hPa 0,0 l/m 37,1 km/h (5 Bft) SW 230 0 min
24.01.2018 15:25 13,8 C 13,9 C 10,2 C 79 % 78 % 1009,7 hPa 0,0 l/m 37,1 km/h (5 Bft) SW 235 0 min
24.01.2018 15:30 13,8 C 13,8 C 10,1 C 79 % 78 % 1009,7 hPa 0,0 l/m 37,1 km/h (5 Bft) SW 235 0 min
24.01.2018 15:35 13,8 C 13,8 C 10,1 C 79 % 78 % 1009,7 hPa 0,0 l/m 29,4 km/h (5 Bft) SW 225 0 min
24.01.2018 15:40 13,8 C 13,8 C 10,1 C 79 % 78 % 1009,7 hPa 0,0 l/m 32,9 km/h (5 Bft) SW 225 0 min
24.01.2018 15:45 13,8 C 13,8 C 10,1 C 78 % 77 % 1009,7 hPa 0,0 l/m 35,2 km/h (5 Bft) S-SW 210 0 min
24.01.2018 15:50 13,7 C 13,8 C 10,1 C 78 % 77 % 1009,7 hPa 0,0 l/m 29,8 km/h (5 Bft) S-SW 210 0 min
24.01.2018 15:55 13,6 C 13,7 C 10,1 C 78 % 77 % 1009,7 hPa 0,0 l/m 35,6 km/h (5 Bft) S-SW 200 0 min
24.01.2018 16:00 13,6 C 13,6 C 10,1 C 78 % 77 % 1010,7 hPa 0,0 l/m 41,0 km/h (6 Bft) S-SW 210 0 min
24.01.2018 16:05 13,5 C 13,6 C 10,1 C 78 % 76 % 1010,7 hPa 0,0 l/m 36,4 km/h (5 Bft) SW 215 0 min
24.01.2018 16:10 13,7 C 13,6 C 10,1 C 76 % 76 % 1010,7 hPa 0,0 l/m 37,1 km/h (5 Bft) S-SW 210 0 min
24.01.2018 16:15 13,6 C 13,5 C 10,1 C 77 % 77 % 1009,7 hPa 0,0 l/m 30,2 km/h (5 Bft) W-SW 255 0 min
24.01.2018 16:20 13,4 C 13,4 C 10,1 C 78 % 78 % 1009,7 hPa 0,0 l/m 30,2 km/h (5 Bft) SW 225 0 min
24.01.2018 16:25 13,4 C 13,4 C 10,1 C 78 % 77 % 1009,7 hPa 0,0 l/m 28,6 km/h (5 Bft) S 170 0 min
24.01.2018 16:30 13,4 C 13,4 C 10,1 C 77 % 77 % 1010,7 hPa 0,0 l/m 32,5 km/h (5 Bft) S 180 0 min
24.01.2018 16:35 13,4 C 13,4 C 10,1 C 77 % 77 % 1010,7 hPa 0,0 l/m 33,3 km/h (5 Bft) S-SW 205 0 min
24.01.2018 16:40 13,4 C 13,3 C 10,1 C 77 % 76 % 1010,7 hPa 0,0 l/m 36,4 km/h (5 Bft) W-SW 255 0 min
24.01.2018 16:45 13,4 C 13,3 C 10,1 C 76 % 76 % 1009,7 hPa 0,0 l/m 31,7 km/h (5 Bft) S-SW 205 0 min
24.01.2018 16:50 13,3 C 13,2 C 10,1 C 77 % 77 % 1009,7 hPa 0,0 l/m 32,1 km/h (5 Bft) SW 220 0 min
24.01.2018 16:55 13,4 C 13,2 C 10,1 C 76 % 76 % 1009,7 hPa 0,0 l/m 35,6 km/h (5 Bft) W-SW 250 0 min
24.01.2018 17:00 13,3 C 13,2 C 10,1 C 77 % 76 % 1009,7 hPa 0,0 l/m 32,1 km/h (5 Bft) S-SW 200 0 min
24.01.2018 17:05 13,2 C 13,2 C 10,1 C 77 % 76 % 1009,7 hPa 0,0 l/m 34,4 km/h (5 Bft) SW 215 0 min
24.01.2018 17:10 13,1 C 13,1 C 10,1 C 78 % 77 % 1009,7 hPa 0,0 l/m 27,1 km/h (5 Bft) SW 230 0 min
24.01.2018 17:15 13,3 C 13,0 C 10,1 C 77 % 77 % 1009,7 hPa 0,0 l/m 36,8 km/h (5 Bft) SW 230 0 min
24.01.2018 17:20 13,1 C 13,0 C 10,1 C 77 % 77 % 1009,7 hPa 0,0 l/m 29,4 km/h (5 Bft) S-SW 205 0 min
24.01.2018 17:25 13,1 C 13,0 C 10,1 C 77 % 77 % 1009,7 hPa 0,0 l/m 27,1 km/h (5 Bft) SW 235 0 min
24.01.2018 17:30 13,1 C 13,0 C 10,1 C 77 % 77 % 1009,7 hPa 0,0 l/m 29,0 km/h (5 Bft) S-SW 200 0 min
24.01.2018 17:35 13,1 C 13,0 C 10,1 C 77 % 76 % 1009,7 hPa 0,0 l/m 29,4 km/h (5 Bft) W 260 0 min
24.01.2018 17:40 13,1 C 13,0 C 10,1 C 76 % 76 % 1009,7 hPa 0,0 l/m 34,4 km/h (5 Bft) S-SO 160 0 min
24.01.2018 17:45 13,2 C 13,0 C 10,1 C 75 % 76 % 1009,7 hPa 0,0 l/m 27,4 km/h (5 Bft) S-SW 210 0 min
24.01.2018 17:50 13,1 C 13,0 C 10,1 C 75 % 75 % 1009,7 hPa 0,0 l/m 29,0 km/h (5 Bft) W 260 0 min
24.01.2018 17:55 13,0 C 12,9 C 9,7 C 76 % 75 % 1009,7 hPa 0,0 l/m 25,4 km/h (4 Bft) SW 225 0 min
24.01.2018 18:00 13,1 C 13,0 C 9,7 C 75 % 75 % 1009,7 hPa 0,0 l/m 26,3 km/h (4 Bft) S 185 0 min
24.01.2018 18:05 13,1 C 13,0 C 9,7 C 75 % 75 % 1009,7 hPa 0,0 l/m 29,4 km/h (5 Bft) SW 215 0 min
24.01.2018 18:10 12,9 C 12,9 C 9,7 C 75 % 75 % 1009,7 hPa 0,0 l/m 22,4 km/h (4 Bft) S-SW 205 0 min
24.01.2018 18:15 13,0 C 12,9 C 9,7 C 75 % 75 % 1008,7 hPa 0,0 l/m 27,1 km/h (5 Bft) S-SW 210 0 min
24.01.2018 18:20 13,1 C 12,9 C 9,7 C 75 % 75 % 1008,7 hPa 0,0 l/m 33,3 km/h (5 Bft) S-SW 200 0 min
24.01.2018 18:25 13,0 C 12,9 C 9,7 C 75 % 75 % 1008,7 hPa 0,0 l/m 30,5 km/h (5 Bft) W 260 0 min
24.01.2018 18:30 13,0 C 12,9 C 9,7 C 74 % 75 % 1008,7 hPa 0,0 l/m 33,3 km/h (5 Bft) S-SW 205 0 min
24.01.2018 18:35 13,0 C 12,8 C 9,7 C 74 % 74 % 1008,7 hPa 0,0 l/m 26,7 km/h (4 Bft) SW 220 0 min
24.01.2018 18:40 13,0 C 12,9 C 9,7 C 74 % 74 % 1008,7 hPa 0,0 l/m 33,3 km/h (5 Bft) W-SW 245 0 min
24.01.2018 18:45 12,9 C 12,9 C 9,7 C 75 % 74 % 1009,7 hPa 0,0 l/m 30,2 km/h (5 Bft) W-SW 245 0 min
24.01.2018 18:50 12,9 C 12,8 C 9,7 C 75 % 75 % 1009,7 hPa 0,0 l/m 26,3 km/h (4 Bft) SO 135 0 min
24.01.2018 18:55 12,9 C 12,8 C 9,7 C 75 % 74 % 1009,7 hPa 0,0 l/m 30,2 km/h (5 Bft) S-SW 210 0 min
24.01.2018 19:00 12,9 C 12,8 C 9,7 C 75 % 74 % 1008,7 hPa 0,0 l/m 25,4 km/h (4 Bft) SW 215 0 min
24.01.2018 19:05 13,0 C 12,7 C 9,7 C 74 % 75 % 1008,7 hPa 0,0 l/m 30,2 km/h (5 Bft) S 185 0 min
24.01.2018 19:10 12,9 C 12,7 C 9,7 C 74 % 74 % 1008,7 hPa 0,0 l/m 27,8 km/h (5 Bft) SW 225 0 min
24.01.2018 19:15 13,1 C 12,8 C 9,7 C 73 % 74 % 1008,7 hPa 0,0 l/m 31,3 km/h (5 Bft) SO 145 0 min
24.01.2018 19:20 13,0 C 12,8 C 9,7 C 73 % 73 % 1008,7 hPa 0,0 l/m 31,7 km/h (5 Bft) S 185 0 min
24.01.2018 19:25 13,0 C 12,8 C 9,7 C 73 % 73 % 1008,7 hPa 0,0 l/m 31,7 km/h (5 Bft) SW 220 0 min
24.01.2018 19:30 13,1 C 12,8 C 9,7 C 72 % 73 % 1008,7 hPa 0,0 l/m 33,7 km/h (5 Bft) S 180 0 min
24.01.2018 19:35 12,9 C 12,8 C 9,7 C 73 % 73 % 1008,7 hPa 0,0 l/m 34,8 km/h (5 Bft) SW 215 0 min
24.01.2018 19:40 12,7 C 12,7 C 9,7 C 73 % 73 % 1008,7 hPa 0,0 l/m 26,0 km/h (4 Bft) S-SW 210 0 min
24.01.2018 19:45 12,7 C 12,6 C 9,7 C 73 % 73 % 1008,7 hPa 0,0 l/m 30,5 km/h (5 Bft) W-SW 255 0 min
24.01.2018 19:50 12,7 C 12,6 C 9,7 C 73 % 73 % 1008,7 hPa 0,0 l/m 29,8 km/h (5 Bft) S 185 0 min
24.01.2018 19:55 12,7 C 12,6 C 9,7 C 74 % 73 % 1008,7 hPa 0,0 l/m 24,2 km/h (4 Bft) S-SW 195 0 min
24.01.2018 20:00 12,7 C 12,6 C 9,7 C 74 % 74 % 1008,7 hPa 0,0 l/m 24,2 km/h (4 Bft) S-SW 195 0 min
24.01.2018 20:05 12,7 C 12,5 C 9,7 C 74 % 74 % 1008,7 hPa 0,0 l/m 24,2 km/h (4 Bft) S-SW 195 0 min
24.01.2018 20:10 12,6 C 12,5 C 9,2 C 75 % 74 % 1008,7 hPa 0,0 l/m 25,4 km/h (4 Bft) S 190 0 min
24.01.2018 20:15 12,5 C 12,5 C 9,2 C 75 % 74 % 1008,7 hPa 0,0 l/m 26,7 km/h (4 Bft) S-SO 155 0 min
24.01.2018 20:20 12,5 C 12,5 C 9,2 C 75 % 74 % 1008,7 hPa 0,0 l/m 28,2 km/h (5 Bft) S 190 0 min
24.01.2018 20:25 12,5 C 12,4 C 9,2 C 75 % 74 % 1008,7 hPa 0,0 l/m 25,4 km/h (4 Bft) W 270 0 min
24.01.2018 20:30 12,5 C 12,4 C 9,2 C 75 % 75 % 1008,7 hPa 0,0 l/m 25,4 km/h (4 Bft) W 270 0 min
24.01.2018 20:35 12,5 C 12,4 C 9,2 C 74 % 74 % 1008,7 hPa 0,0 l/m 30,9 km/h (5 Bft) SW 230 0 min
24.01.2018 20:40 12,6 C 12,5 C 9,2 C 74 % 74 % 1008,7 hPa 0,0 l/m 30,5 km/h (5 Bft) S 175 0 min
24.01.2018 20:45 12,5 C 12,5 C 9,2 C 74 % 74 % 1008,7 hPa 0,0 l/m 26,3 km/h (4 Bft) S-SW 195 0 min
24.01.2018 20:50 12,6 C 12,4 C 9,2 C 74 % 74 % 1008,7 hPa 0,0 l/m 26,3 km/h (4 Bft) S-SW 205 0 min
24.01.2018 20:55 12,5 C 12,4 C 9,2 C 74 % 74 % 1008,7 hPa 0,0 l/m 23,6 km/h (4 Bft) SW 225 0 min
24.01.2018 21:00 12,5 C 12,4 C 9,2 C 74 % 74 % 1008,7 hPa 0,0 l/m 29,0 km/h (5 Bft) SW 215 0 min
24.01.2018 21:05 12,5 C 12,4 C 9,2 C 74 % 73 % 1008,7 hPa 0,0 l/m 28,2 km/h (5 Bft) W-SW 240 0 min
24.01.2018 21:10 12,5 C 12,4 C 9,2 C 74 % 73 % 1008,7 hPa 0,0 l/m 27,1 km/h (5 Bft) S 175 0 min
24.01.2018 21:15 12,6 C 12,4 C 9,2 C 73 % 73 % 1007,7 hPa 0,0 l/m 29,4 km/h (5 Bft) SW 230 0 min
24.01.2018 21:20 12,6 C 12,5 C 9,2 C 73 % 73 % 1007,7 hPa 0,0 l/m 23,0 km/h (4 Bft) SW 215 0 min
24.01.2018 21:25 12,6 C 12,5 C 9,2 C 73 % 73 % 1007,7 hPa 0,0 l/m 28,6 km/h (5 Bft) S 190 0 min
24.01.2018 21:30 12,6 C 12,5 C 9,2 C 72 % 73 % 1008,7 hPa 0,0 l/m 28,2 km/h (5 Bft) S 170 0 min
24.01.2018 21:35 12,6 C 12,5 C 9,2 C 73 % 73 % 1008,7 hPa 0,0 l/m 23,0 km/h (4 Bft) S-SO 150 0 min
24.01.2018 21:40 12,6 C 12,5 C 9,2 C 73 % 73 % 1008,7 hPa 0,0 l/m 29,8 km/h (5 Bft) SW 215 0 min
24.01.2018 21:45 12,6 C 12,5 C 9,2 C 73 % 73 % 1007,7 hPa 0,0 l/m 26,0 km/h (4 Bft) S-SW 205 0 min
24.01.2018 21:50 12,5 C 12,4 C 9,2 C 73 % 73 % 1007,7 hPa 0,0 l/m 20,6 km/h (4 Bft) S-SW 195 0 min
24.01.2018 21:55 12,5 C 12,4 C 9,2 C 73 % 73 % 1007,7 hPa 0,0 l/m 27,1 km/h (5 Bft) S-SW 200 0 min
24.01.2018 22:00 12,5 C 12,4 C 9,2 C 73 % 73 % 1007,7 hPa 0,0 l/m 27,4 km/h (5 Bft) S-SW 205 0 min
24.01.2018 22:05 12,4 C 12,4 C 9,2 C 73 % 73 % 1007,7 hPa 0,0 l/m 26,0 km/h (4 Bft) S-SW 205 0 min
24.01.2018 22:10 12,3 C 12,4 C 9,2 C 74 % 74 % 1007,7 hPa 0,0 l/m 24,2 km/h (4 Bft) S-SO 160 0 min
24.01.2018 22:15 12,3 C 12,3 C 9,1 C 74 % 73 % 1007,7 hPa 0,0 l/m 32,1 km/h (5 Bft) SW 230 0 min
24.01.2018 22:20 12,4 C 12,4 C 9,1 C 73 % 73 % 1007,7 hPa 0,0 l/m 29,0 km/h (5 Bft) S-SW 205 0 min
24.01.2018 22:25 12,4 C 12,3 C 9,1 C 73 % 73 % 1007,7 hPa 0,0 l/m 29,8 km/h (5 Bft) SW 235 0 min
24.01.2018 22:30 12,4 C 12,3 C 9,1 C 74 % 73 % 1007,7 hPa 0,0 l/m 28,6 km/h (5 Bft) S 180 0 min
24.01.2018 22:35 12,4 C 12,3 C 9,1 C 74 % 73 % 1007,7 hPa 0,0 l/m 32,5 km/h (5 Bft) S-SW 210 0 min
24.01.2018 22:40 12,4 C 12,3 C 9,1 C 74 % 74 % 1007,7 hPa 0,0 l/m 26,0 km/h (4 Bft) S 185 0 min
24.01.2018 22:45 12,4 C 12,3 C 9,1 C 74 % 74 % 1008,7 hPa 0,0 l/m 27,1 km/h (5 Bft) S 175 0 min
24.01.2018 22:50 12,4 C 12,3 C 9,1 C 74 % 74 % 1008,7 hPa 0,0 l/m 27,1 km/h (5 Bft) S 175 0 min
24.01.2018 22:55 12,4 C 12,4 C 9,1 C 74 % 74 % 1008,7 hPa 0,0 l/m 27,1 km/h (5 Bft) S-SW 205 0 min
24.01.2018 23:00 12,5 C 12,4 C 9,1 C 74 % 74 % 1008,7 hPa 0,0 l/m 30,5 km/h (5 Bft) S-SW 210 0 min
24.01.2018 23:05 12,6 C 12,4 C 9,1 C 74 % 74 % 1008,7 hPa 0,0 l/m 34,4 km/h (5 Bft) SW 220 0 min
24.01.2018 23:10 12,6 C 12,4 C 9,1 C 74 % 74 % 1008,7 hPa 0,0 l/m 33,3 km/h (5 Bft) S-SW 210 0 min
24.01.2018 23:15 12,5 C 12,4 C 9,1 C 74 % 75 % 1007,7 hPa 0,0 l/m 28,2 km/h (5 Bft) S 180 0 min
24.01.2018 23:20 12,4 C 12,4 C 9,1 C 75 % 75 % 1007,7 hPa 0,0 l/m 32,5 km/h (5 Bft) SW 220 0 min
24.01.2018 23:25 12,6 C 12,4 C 9,1 C 75 % 75 % 1007,7 hPa 0,0 l/m 34,0 km/h (5 Bft) S 185 0 min
24.01.2018 23:30 12,4 C 12,4 C 9,1 C 76 % 75 % 1007,7 hPa 0,0 l/m 30,9 km/h (5 Bft) S-SW 210 0 min
24.01.2018 23:35 12,4 C 12,3 C 9,1 C 77 % 76 % 1007,7 hPa 0,0 l/m 30,9 km/h (5 Bft) S 180 0 min
24.01.2018 23:40 12,3 C 12,3 C 9,1 C 77 % 76 % 1007,7 hPa 0,0 l/m 29,4 km/h (5 Bft) SW 225 0 min
24.01.2018 23:45 12,4 C 12,2 C 9,1 C 76 % 76 % 1007,7 hPa 0,0 l/m 22,4 km/h (4 Bft) S-SW 210 0 min
24.01.2018 23:50 12,5 C 12,3 C 9,2 C 76 % 76 % 1007,7 hPa 0,0 l/m 36,8 km/h (5 Bft) S-SW 210 0 min
24.01.2018 23:55 12,5 C 12,4 C 9,2 C 75 % 76 % 1007,7 hPa 0,0 l/m 29,8 km/h (5 Bft) S-SO 160 0 min
_ Min-Zeit 00:00 00:00 00:00 19:30 19:20 21:20 - 03:25 - - -
Minimum _ 10,7 C 10,6 C 7,3 C 72 % 73 % 1007,7 hPa - 10,9 km/h (2 Bft) - - -
_ Max-Zeit 13:05 13:05 13:20 01:00 01:15 00:00 00:00 16:00 - - 12:00
Maximum _ 14,4 C 14,4 C 10,2 C 91 % 89 % 1016,8 hPa 0,0 l/m 41,0 km/h
S-SW (6 Bft)
- - 10 min
Durchschnitt _ 12,6 C 12,5 C 9,1 C 82 % 81 % 1012,5 hPa #0,0 l/m 25,4 km/h (4 Bft) S-SW - #1:42 h